User: anonymous   Login
Location: Caltech
(34.1382°N, 118.1253°W)
Time: 19:20:10
(UTC-07:00)
Language:

Cosmos 1937 Rocket - Orbit

View from above orbital plane
View from above orbital plane
View from above satellite
View from above satellite

Ground track
Ground track

The orbit data is extracted from the following two-line orbital elements,

1 19039U 88029B   14295.47126557  .00000563  00000-0  19394-3 0  1644
2 19039 074.0479 283.0261 0024704 333.8501 149.4428 14.38055572391585
Epoch (UTC): 22 October 2014 11:18:37
Eccentricity: 0.0024704
inclination: 74.0479°
perigee height: 747 km
apogee height: 782 km
right ascension of ascending node: 283.0261°
argument of perigee: 333.8501°
revolutions per day: 14.38055572
mean anomaly at epoch: 149.4428°
orbit number at epoch: 39158

The dashed part of the orbit path shows where the satellite is in the earth's shadow,  

DLR